CZ-6A DEB, 60852

Orbit data source: Space-Track

CZ-6A DEB, 60852 is space debris in LEO originally from a launch on Tue, 06 Aug 2024 UTC launched from the Taiyaun Space Center, China (TSC). Debris objects in space refer to the collection of defunct objects orbiting the Earth. Examples of debris include non-operational satellites, rocket bodies, and fragments generated from explosions, collisions, or faulty payload assembly.

Loading next visibility...
Identifier
60852, 2024-140JF
Orbit
LEO
Country
Flag of CNCN / PRC
Related business
Manufacturer
SAST
Mission
Spacecraft
Bus & Motor
Unknown
Mass
Unknown
Launch date (UTC)
2024-08-06 (2 years ago)
Launch vehicle
Unknown
Launch site
Taiyaun Space Center, China (TSC)
Object type
Payload
Rocket body
Debris
Shape & HBR
Unknown shape, 0.3 m
Radar Cross Section
Medium (>0.1 m² and <1 m²)

Expand to show TLE details & history
Last TLE update: 16 hours ago

TLE from 16 hours ago
0 CZ-6A DEB
1 60852U 24140JF  26171.18666666  .00000351  00000-0  27346-3 0  9998
2 60852  88.3943 237.5014 0386989 349.5546   9.7730 13.60628627 91714
Epoch: 2026-06-20T04:28Z
TLE epoch observation values (Epoch: 2026-06-20T04:28:47.999Z)
Latitude
-0.00005°
Longitude
-98.1035°
Altitude
754.006 km
Speed
7.618 km/s
True Right ascension
15h 50m 00s
True Declination
0° 00' 00"
Sunlit
Object was in full shadow at epoch
Visualization orbit readout
Latitude
Unknown
Longitude
Unknown
Altitude
Unknown
Speed
Unknown
Apparent Right ascension
Unknown
Apparent Declination
Unknown
Sunlit
N/A
Visualization observer readout
Local Sidereal Time
07:20:12
Azimuth
Unknown
Elevation
Unknown
Doppler factor
Unknown
Orbital elements
Apogee altitude
1,317.147 km
Perigee altitude
743.739 km
Semi-major axis
7,408.58 km
Eccentricity
0.0387
Inclination
88.3943°
RAAN
237.5014°
Arg. of periapsis
349.5546°
True anomaly
10.56332°
Mean anomaly
9.773°
Eccentric anomaly
10.16429°
Mean motion
3.40362 °/min
Orbital period
105.77 mins
BSTAR
0.00027346
Loading maneuver chart data...
Computing Atmospheric mass density...
Loading historical data...
Loading historical data...
Loading historical data...
Loading historical data...
Loading historical data...
Loading historical data...
Loading historical data...

Documentation

Showing up to 5 results
|